Tracking 29932 objects as of 3-Dec-2024
HD Live streaming from Space Station
objects crossing your sky now

STARLINK-30109

Track STARLINK-30109 now!
10-day predictions
STARLINK-30109 is classified as:


NORAD ID: 56298
Int'l Code: 2023-056N
Perigee: 565.5 km
Apogee: 567.0 km
Inclination: 43.0 °
Period: 95.8 minutes
Semi major axis: 6937 km
RCS: Unknown
Launch date: April 19, 2023
Source: United States (US)
Launch site: AIR FORCE EASTERN TEST RANGE (AFETR)
Your satellite tracking list
Your tracking list is empty




NASA's NSSDC Master Catalog

Two Line Element Set (TLE):
1 56298U 23056N   24337.35109781  .00000709  00000-0  67574-4 0  9998
2 56298  43.0022 202.6415 0001091 270.7979  89.2738 15.02535060 90536
Source of the keplerian elements: AFSPC